Weather in Fano

Italy     43°50′30″N   13°00′47″E
temp.,
°C
wind,
m/s
gust,
m/s
humid.,
%
clouds,
%
prec.,
mm/h
press.,
hPa
HPBL,
m
18 may, tue
tue1823:00+11sw22805 0.0 101114
02:00+10sw33780 0.0 101238
05:00+10wsw45800 0.0 101265
08:00+14sw127279 0.0 1014209
11:00+21ese11481 0.0 10141114
14:00+22e2443100 0.0 10131702
17:00+22wsw474099 0.0 10122176
20:00+18sw2261100 0.0 101128
19 may, wed
wed1923:00+16w1155100 0.0 101222
02:00+13ssw4869100 0.0 1012130
05:00+11ssw3482100 0.0 101190
08:00+12wnw2691100 0.4 1012240
11:00+13nnw8108999 1.3 1014699
14:00+12n9107697 1.7 1016868
17:00+14ne46621 0.0 1016894
20:00+11sse22756 0.0 101520
20 may, thu
thu2023:00+10sw1171100 0.0 101613
02:00+10s1164100 0.0 101613
05:00+8ssw117795 0.0 101612
08:00+13s126950 0.0 1017172
11:00+17ene325690 0.0 10181053
14:00+18ne43575 0.0 10191001
17:00+18ne22568 0.0 1019788
20:00+13ene11780 0.0 102114
21 may, fri
fri2123:00+10sw33875 0.0 102222
02:00+10sw22821 0.0 102213
05:00+9sw227856 0.0 102212
08:00+15ssw116066 0.0 1022119
11:00+20se234142 0.0 1020966
14:00+23ese2434100 0.0 10192123
17:00+23sw46416 0.0 10172407
20:00+18sw3362100 0.0 101645
22 may, sat
sat2223:00+13sw336624 0.0 101627
02:00+12sw3375100 0.0 101535
05:00+10ssw33795 0.0 101440
08:00+15ssw246584 0.0 1014185
11:00+20ssw2440100 0.0 1013969
14:00+23wsw4738100 0.0 10121309
17:00+22ssw81348100 0.0 10101198
20:00+20ssw61254100 0.0 1011788